Mount Airy, NC

3:07 AM EST on November 17, 2019 (GMT -0500)
Mount Airy-Surry County

Weather History for KMWK - September, 2019

Change the Weather History Date:

Thursday, September 19, 2019

  Actual Average (KINT) Record (KINT)
Temperature  
Mean Temperature 64 °F -  
Max Temperature 72 °F 76 °F 90 °F (1970)
Min Temperature 56 °F 58 °F 39 °F (1984)
Degree Days  
Heating Degree Days 1    
Growing Degree Days 14 (Base 50)    
Moisture  
Dew Point 55 °F    
Average Humidity 70    
Maximum Humidity 85    
Minimum Humidity 47    
Precipitation  
Precipitation 0.00 in - - ()
Sea Level Pressure  
Sea Level Pressure 30.31 in    
Wind  
Wind Speed 3 mph ()    
Max Wind Speed 6 mph    
Max Gust Speed -    
Visibility 10.0 miles    
Events      
Averages and records for this station are not official NWS values.
T = Trace of Precipitation, MM = Missing Value Source: Averaged Metar Reports

Daily Weather History Graph

Daily Weather History Graph

Search for Another Location

Airport or City:

Astronomy

Sep. 19, 2019 Rise Set
Actual Time 7:07 AM EDT 7:23 PM EDT
Civil Twilight 6:41 AM EDT 7:49 PM EDT
Nautical Twilight 6:11 AM EDT 8:19 PM EDT
Astronomical Twilight 5:40 AM EDT 8:50 PM EDT
Moon 10:40 PM EDT (9/19) 12:01 PM EDT (9/19)
Length of Visible Light 13h 07m
Length of Day
12h 16m
Waning Gibbous, 74% of the Moon is Illuminated
Sep 19
Waning Gibbous
Sep 21
Last Quarter
Sep 28
New
Oct 5
First Quarter
Oct 13
Full

Hourly Weather History & Observations

Time (EDT) Temp. Dew Point Humidity Pressure Visibility Wind Dir Wind Speed Gust Speed Precip Events Conditions
12:15 AM 65.7 °F 59.9 °F 82% 30.25 in 10.0 mi East 5.8 mph - N/A   Mostly Cloudy
12:35 AM 65.7 °F 59.2 °F 80% 30.25 in 10.0 mi East 5.8 mph - N/A   Overcast
12:55 AM 66.4 °F 58.5 °F 76% 30.26 in 10.0 mi ENE 5.8 mph - N/A   Overcast
1:15 AM 66.0 °F 57.7 °F 75% 30.25 in 10.0 mi East 4.6 mph - N/A   Overcast
1:35 AM 65.7 °F 57.2 °F 74% 30.27 in 10.0 mi East 3.5 mph - N/A   Overcast
1:55 AM 65.5 °F 56.7 °F 73% 30.27 in 10.0 mi East 4.6 mph - N/A   Overcast
2:15 AM 65.3 °F 56.7 °F 74% 30.27 in 10.0 mi East 5.8 mph - N/A   Overcast
2:35 AM 64.8 °F 56.3 °F 74% 30.28 in 10.0 mi East 5.8 mph - N/A   Overcast
2:55 AM 64.4 °F 56.3 °F 75% 30.27 in 10.0 mi ENE 5.8 mph - N/A   Overcast
3:15 AM 63.9 °F 56.5 °F 77% 30.27 in 10.0 mi Calm Calm - N/A   Overcast
3:35 AM 62.8 °F 56.3 °F 79% 30.28 in 10.0 mi Calm Calm - N/A   Overcast
3:55 AM 62.6 °F 56.3 °F 80% 30.28 in 10.0 mi Calm Calm - N/A   Mostly Cloudy
4:15 AM 61.9 °F 56.3 °F 82% 30.29 in 10.0 mi Calm Calm - N/A   Overcast
4:35 AM 62.1 °F 56.3 °F 81% 30.29 in 10.0 mi ENE 3.5 mph - N/A   Overcast
4:55 AM 61.5 °F 55.9 °F 82% 30.29 in 10.0 mi Calm Calm - N/A   Overcast
5:15 AM 61.0 °F 55.9 °F 83% 30.29 in 10.0 mi ENE 4.6 mph - N/A   Overcast
5:35 AM 61.0 °F 55.9 °F 83% 30.29 in 10.0 mi ENE 3.5 mph - N/A   Overcast
5:55 AM 61.2 °F 55.9 °F 83% 30.29 in 10.0 mi ENE 3.5 mph - N/A   Overcast
6:15 AM 61.3 °F 55.9 °F 82% 30.30 in 10.0 mi ENE 3.5 mph - N/A   Overcast
6:35 AM 61.2 °F 55.9 °F 83% 30.31 in 10.0 mi ENE 3.5 mph - N/A   Overcast
6:55 AM 61.5 °F 55.8 °F 81% 30.31 in 10.0 mi Calm Calm - N/A   Overcast
7:15 AM 61.3 °F 55.8 °F 82% 30.32 in 10.0 mi Calm Calm - N/A   Overcast
7:35 AM 61.3 °F 55.9 °F 82% 30.33 in 10.0 mi Calm Calm - N/A   Overcast
7:55 AM 61.3 °F 55.9 °F 82% 30.33 in 10.0 mi Calm Calm - N/A   Overcast
8:15 AM 61.7 °F 55.8 °F 81% 30.33 in 10.0 mi NE 3.5 mph - N/A   Overcast
8:35 AM 61.7 °F 56.1 °F 82% 30.34 in 10.0 mi Calm Calm - N/A   Overcast
8:55 AM 62.1 °F 56.3 °F 81% 30.34 in 10.0 mi Calm Calm - N/A   Overcast
9:15 AM 62.2 °F 56.3 °F 81% 30.34 in 10.0 mi East 4.6 mph - N/A   Overcast
9:55 AM 63.7 °F 56.5 °F 77% 30.35 in 10.0 mi ESE 5.8 mph - N/A   Mostly Cloudy
10:15 AM 64.9 °F 56.8 °F 75% 30.35 in 10.0 mi ENE 4.6 mph - N/A   Overcast
10:35 AM 64.2 °F 56.7 °F 76% 30.35 in 10.0 mi ENE 3.5 mph - N/A   Overcast
10:55 AM 65.5 °F 56.5 °F 73% 30.35 in 10.0 mi ENE 4.6 mph - N/A   Mostly Cloudy
11:15 AM 66.2 °F 56.3 °F 70% 30.35 in 10.0 mi Calm Calm - N/A   Mostly Cloudy
11:35 AM 65.8 °F 55.8 °F 70% 30.35 in 10.0 mi East 3.5 mph - N/A   Mostly Cloudy
11:55 AM 66.9 °F 54.9 °F 65% 30.35 in 10.0 mi ESE 3.5 mph - N/A   Mostly Cloudy
12:15 PM 66.4 °F 55.2 °F 67% 30.35 in 10.0 mi ESE 3.5 mph - N/A   Overcast
12:35 PM 68.0 °F 55.8 °F 65% 30.35 in 10.0 mi East 3.5 mph - N/A   Overcast
12:55 PM 67.1 °F 55.2 °F 66% 30.34 in 10.0 mi East 3.5 mph - N/A   Mostly Cloudy
1:15 PM 67.1 °F 53.8 °F 62% 30.34 in 10.0 mi Calm Calm - N/A   Overcast
1:35 PM 68.0 °F 54.5 °F 62% 30.33 in 10.0 mi Calm Calm - N/A   Mostly Cloudy
1:55 PM 69.4 °F 54.9 °F 60% 30.33 in 10.0 mi SE 4.6 mph - N/A   Mostly Cloudy
2:15 PM 69.3 °F 54.1 °F 59% 30.33 in 10.0 mi East 4.6 mph - N/A   Mostly Cloudy
2:35 PM 70.0 °F 53.8 °F 56% 30.32 in 10.0 mi East 3.5 mph - N/A   Mostly Cloudy
2:55 PM 71.1 °F 52.9 °F 53% 30.31 in 10.0 mi SE 3.5 mph - N/A   Mostly Cloudy
3:15 PM 70.0 °F 52.5 °F 54% 30.31 in 10.0 mi East 3.5 mph - N/A   Overcast
3:35 PM 70.3 °F 52.3 °F 53% 30.30 in 10.0 mi Calm Calm - N/A   Overcast
3:55 PM 72.5 °F 52.5 °F 49% 30.29 in 10.0 mi NE 5.8 mph - N/A   Mostly Cloudy
4:15 PM 70.7 °F 51.4 °F 50% 30.29 in 10.0 mi Calm Calm - N/A   Scattered Clouds
4:35 PM 72.7 °F 51.3 °F 47% 30.29 in 10.0 mi ESE 5.8 mph - N/A   Mostly Cloudy
4:55 PM 72.5 °F 51.3 °F 47% 30.29 in 10.0 mi NE 4.6 mph - N/A   Scattered Clouds
5:15 PM 71.2 °F 50.9 °F 49% 30.28 in 10.0 mi East 3.5 mph - N/A   Clear
5:35 PM 71.8 °F 51.1 °F 48% 30.28 in 10.0 mi Calm Calm - N/A   Clear
5:55 PM 72.0 °F 51.8 °F 49% 30.28 in 10.0 mi East 5.8 mph - N/A   Clear
6:15 PM 71.4 °F 51.8 °F 50% 30.28 in 10.0 mi ESE 3.5 mph - N/A   Clear
6:35 PM 70.9 °F 52.0 °F 51% 30.28 in 10.0 mi ENE 4.6 mph - N/A   Clear
6:55 PM 70.2 °F 52.0 °F 52% 30.28 in 10.0 mi East 4.6 mph - N/A   Scattered Clouds
7:15 PM 68.7 °F 53.1 °F 57% 30.28 in 10.0 mi East 3.5 mph - N/A   Scattered Clouds
7:35 PM 67.3 °F 53.6 °F 61% 30.29 in 10.0 mi East 3.5 mph - N/A   Scattered Clouds
7:55 PM 66.0 °F 54.0 °F 65% 30.29 in 10.0 mi East 4.6 mph - N/A   Scattered Clouds
8:15 PM 65.7 °F 53.6 °F 65% 30.29 in 10.0 mi ENE 3.5 mph - N/A   Mostly Cloudy
8:35 PM 63.5 °F 54.5 °F 72% 30.30 in 10.0 mi East 3.5 mph - N/A   Scattered Clouds
8:55 PM 64.2 °F 53.2 °F 67% 30.30 in 10.0 mi East 4.6 mph - N/A   Scattered Clouds
9:15 PM 64.2 °F 53.1 °F 67% 30.31 in 10.0 mi East 4.6 mph - N/A   Mostly Cloudy
9:35 PM 63.5 °F 53.1 °F 69% 30.31 in 10.0 mi East 4.6 mph - N/A   Mostly Cloudy
9:55 PM 63.0 °F 52.9 °F 70% 30.32 in 10.0 mi East 4.6 mph - N/A   Scattered Clouds
10:15 PM 63.0 °F 52.9 °F 70% 30.32 in 10.0 mi ENE 3.5 mph - N/A   Clear
10:35 PM 62.2 °F 52.3 °F 70% 30.32 in 10.0 mi Calm Calm - N/A   Clear
10:55 PM 62.1 °F 52.2 °F 70% 30.32 in 10.0 mi Calm Calm - N/A   Clear
11:15 PM 58.1 °F 52.2 °F 81% 30.32 in 10.0 mi Calm Calm - N/A   Clear
11:35 PM 56.7 °F 52.3 °F 85% 30.32 in 10.0 mi Calm Calm - N/A   Clear
11:55 PM 56.7 °F 52.2 °F 85% 30.32 in 10.0 mi Calm Calm - N/A   Clear